VELOX-CI                
1 41166U 15077A   19260.58802102  .00000948  00000-0  17153-4 0  9994
2 41166  14.9834 309.1078 0011119 204.4708 155.5084 15.09840110207427
KENT RIDGE 1            
1 41167U 15077B   19260.73550926  .00000828  00000-0  10473-4 0  9991
2 41167  14.9778 316.2937 0011001 188.7683 102.2134 15.09060793207363
ATHENOXAT 1             
1 41168U 15077C   19260.64278870  .00001728  00000-0  55850-4 0  9995
2 41168  14.9881 269.4760 0011478 278.6471  81.2550 15.13764185207789
TELEOS 1                
1 41169U 15077D   19260.73153935  .00001129  00000-0  27540-4 0  9990
2 41169  14.9817 305.0057 0010333 207.5904  94.6014 15.10301417207466
GALASSIA                
1 41170U 15077E   19260.55020724  .00001707  00000-0  53991-4 0  9992
2 41170  14.9884 262.9666 0012805 301.7546  58.1528 15.14091461207839
VELOX-II                
1 41171U 15077F   19260.71602610  .00001319  00000-0  37454-4 0  9996
2 41171  14.9916 297.3025 0008727 216.9582 143.0138 15.11298647207543
PSLV R/B                
1 41172U 15077G   19258.36880080  .00003292  00000-0  47747-4 0  9992
2 41172  14.6928 289.8542 0095666 165.6818 194.6235 15.38292048210434